TimeCEST,TemperatureF,Dew PointF,Humidity,Sea Level PressureIn,VisibilityMPH,Wind Direction,Wind SpeedMPH,Gust SpeedMPH,PrecipitationIn,Events,Conditions,WindDirDegrees,DateUTC
12:00 AM,60.8,60.8,100,29.77,6.2,Calm,Calm,-,N/A,,Mostly Cloudy,0,2013-09-29 22:00:00
12:30 AM,60.8,60.8,100,29.77,6.2,Calm,Calm,-,N/A,,Mostly Cloudy,0,2013-09-29 22:30:00
1:00 AM,60.8,60.8,100,29.77,6.2,Calm,Calm,-,N/A,,Mostly Cloudy,0,2013-09-29 23:00:00
1:30 AM,60.8,60.8,100,29.74,6.2,WSW,2.3,-,N/A,,Scattered Clouds,240,2013-09-29 23:30:00
2:00 AM,61,60,95,29.74,16,Calm,Calm,,,,Scattered Clouds,,2013-09-30 00:00:00
2:00 AM,60.8,59.0,94,29.74,6.2,Calm,Calm,-,N/A,,Scattered Clouds,0,2013-09-30 00:00:00
2:30 AM,59.0,59.0,100,29.74,6.2,Calm,Calm,-,N/A,,Scattered Clouds,0,2013-09-30 00:30:00
3:00 AM,59.0,59.0,100,29.74,6.2,Calm,Calm,-,N/A,,Partly Cloudy,0,2013-09-30 01:00:00
3:30 AM,59.0,57.2,94,29.74,6.2,Calm,Calm,-,N/A,,Partly Cloudy,0,2013-09-30 01:30:00
4:00 AM,59.0,59.0,100,29.74,6.2,SW,1.2,-,N/A,,Partly Cloudy,230,2013-09-30 02:00:00
4:30 AM,57.2,57.2,100,29.71,6.2,Calm,Calm,-,N/A,,Partly Cloudy,0,2013-09-30 02:30:00
5:00 AM,57.2,57.2,100,29.71,6.2,WSW,2.3,-,N/A,,Partly Cloudy,250,2013-09-30 03:00:00
5:30 AM,57.2,57.2,100,29.71,6.2,Calm,Calm,-,N/A,,Partly Cloudy,0,2013-09-30 03:30:00
6:00 AM,55.4,55.4,100,29.71,6.2,Variable,1.2,-,N/A,,Partly Cloudy,0,2013-09-30 04:00:00
6:30 AM,55.4,55.4,100,29.71,5.6,Calm,Calm,-,N/A,,Unknown,0,2013-09-30 04:30:00
7:00 AM,57.2,57.2,100,29.71,5.6,Calm,Calm,-,N/A,,Unknown,0,2013-09-30 05:00:00
7:30 AM,55.4,55.4,100,29.71,-9999.0,Calm,Calm,-,N/A,,Clear,0,2013-09-30 05:30:00
8:00 AM,55,55,100,29.71,25,NNE,1.2,,,,Scattered Clouds,20,2013-09-30 06:00:00
8:00 AM,55.4,55.4,100,29.71,-9999.0,NNW,1.2,-,N/A,,Clear,340,2013-09-30 06:00:00
8:30 AM,57.2,57.2,100,29.71,-9999.0,Calm,Calm,-,N/A,,Clear,0,2013-09-30 06:30:00
9:00 AM,59.0,59.0,100,29.71,-9999.0,Variable,1.2,-,N/A,,Clear,0,2013-09-30 07:00:00
9:30 AM,62.6,59.0,88,29.71,-9999.0,Calm,Calm,-,N/A,,Clear,0,2013-09-30 07:30:00
10:00 AM,66.2,59.0,78,29.71,-9999.0,Calm,Calm,-,N/A,,Clear,0,2013-09-30 08:00:00
10:30 AM,68.0,60.8,78,29.71,-9999.0,Calm,Calm,-,N/A,,Clear,0,2013-09-30 08:30:00
11:00 AM,71.6,59.0,64,29.71,-9999.0,Calm,Calm,-,N/A,,Clear,0,2013-09-30 09:00:00
11:30 AM,71.6,59.0,64,29.71,-9999.0,Calm,Calm,-,N/A,,Clear,0,2013-09-30 09:30:00
12:00 PM,71.6,59.0,64,29.71,-9999.0,South,3.5,-,N/A,,Clear,190,2013-09-30 10:00:00
12:30 PM,71.6,59.0,64,29.71,6.2,South,3.5,-,N/A,,Partly Cloudy,190,2013-09-30 10:30:00
1:00 PM,73.4,57.2,57,29.71,6.2,Calm,Calm,-,N/A,,Partly Cloudy,0,2013-09-30 11:00:00
1:30 PM,75.2,55.4,50,29.68,6.2,Calm,Calm,-,N/A,,Partly Cloudy,0,2013-09-30 11:30:00
2:00 PM,81,56,32,29.65,19,SSE,4.6,,,,Scattered Clouds,150,2013-09-30 12:00:00
2:00 PM,78.8,55.4,44,29.68,6.2,SE,2.3,-,N/A,,Partly Cloudy,140,2013-09-30 12:00:00
2:30 PM,80.6,55.4,42,29.65,6.2,South,1.2,-,N/A,,Partly Cloudy,180,2013-09-30 12:30:00
3:00 PM,80.6,51.8,37,29.65,6.2,NW,4.6,-,N/A,,Scattered Clouds,310,2013-09-30 13:00:00
3:30 PM,80.6,53.6,39,29.65,6.2,Variable,5.8,-,N/A,,Scattered Clouds,0,2013-09-30 13:30:00
4:00 PM,80.6,55.4,42,29.65,6.2,NNE,11.5,-,N/A,,Scattered Clouds,30,2013-09-30 14:00:00
4:30 PM,78.8,57.2,47,29.68,6.2,NE,10.4,-,N/A,,Scattered Clouds,50,2013-09-30 14:30:00
5:00 PM,78.8,55.4,44,29.68,6.2,NE,12.7,-,N/A,,Scattered Clouds,50,2013-09-30 15:00:00
5:30 PM,78.8,57.2,47,29.68,6.2,NE,11.5,-,N/A,,Scattered Clouds,40,2013-09-30 15:30:00
6:00 PM,77.0,57.2,50,29.68,6.2,ENE,10.4,-,N/A,,Scattered Clouds,60,2013-09-30 16:00:00
6:30 PM,77.0,55.4,47,29.71,6.2,ENE,9.2,-,N/A,,Scattered Clouds,60,2013-09-30 16:30:00
7:00 PM,75.2,59.0,57,29.71,6.2,East,4.6,-,N/A,,Scattered Clouds,100,2013-09-30 17:00:00
7:30 PM,73.4,59.0,61,29.74,6.2,ESE,3.5,-,N/A,,Scattered Clouds,120,2013-09-30 17:30:00
8:00 PM,72,59,55,29.73,16,SE,5.8,,,,Partly Cloudy,130,2013-09-30 18:00:00
8:00 PM,71.6,59.0,64,29.74,6.2,SE,4.6,-,N/A,,Scattered Clouds,130,2013-09-30 18:00:00
8:30 PM,69.8,57.2,64,29.74,6.2,SSE,3.5,-,N/A,,Partly Cloudy,150,2013-09-30 18:30:00
9:00 PM,68.0,57.2,68,29.77,6.2,Calm,Calm,-,N/A,,Partly Cloudy,0,2013-09-30 19:00:00
9:30 PM,68.0,57.2,68,29.77,6.2,Calm,Calm,-,N/A,,Partly Cloudy,0,2013-09-30 19:30:00
10:00 PM,66.2,57.2,73,29.77,6.2,Calm,Calm,-,N/A,,Partly Cloudy,0,2013-09-30 20:00:00
10:30 PM,66.2,57.2,73,29.77,6.2,Calm,Calm,-,N/A,,Partly Cloudy,0,2013-09-30 20:30:00
11:00 PM,66.2,57.2,73,29.77,6.2,West,2.3,-,N/A,,Partly Cloudy,280,2013-09-30 21:00:00
11:30 PM,64.4,57.2,77,29.77,6.2,West,2.3,-,N/A,,Partly Cloudy,280,2013-09-30 21:30:00